Flag for Ireland Weather past 2 weeks in Dundalk, Ireland

Now
62 °F

Cool.


Feels Like: 62 °F
Forecast: 51 / 58 °F
Wind: 6 mph from Northwest

Location: Glenanne

Current Time: Sep 22, 2014 at 5:32:46 PM

Latest Report: Sep 22, 2014 at 4:00 PM


Visibility: 19 mi

Pressure: 30.22 "Hg

Humidity: 65%

Dew point: 50 °F

Location of DundalkLocation

Historic Weather in Dundalk — Graph

°F

Dundalk temperature yesterday

Maximum temperature yesterday: 64 °F (at 3:00 PM)
Minimum temperature yesterday: 47 °F (at 7:00 AM)
Average temperature yesterday: 54 °F

Past Weeks' High & Low Weather Summary

 TemperatureHumidityPressure
High69 °F (Sep 11, 3:00 PM)100% (Sep 17, 4:00 AM)30.35 "Hg (Sep 17, 4:00 AM)
Low46 °F (Sep 8, 4:00 AM)57% (Sep 9, 3:00 PM)29.84 "Hg (Sep 18, 4:00 PM)
Average56 °F87%30.13 "Hg
* Reported Sep 7 4:00 PM — Sep 22 4:00 PM, Dundalk, Weather by CustomWeather, © 2014

Note: Actual official high and low records may vary slightly from our data, if they occured in-between our weather recording intervals... More about our weather records

Advertising

Dundalk weather history for previous 24 hours

 ConditionsComfort  
Time TempWeatherWind HumidityBarometerVisibility
4:00 PM
Sep 22
62 °FCool.6 mph65%30.22 "Hg19 mi
3:00 PM63 °FMild.5 mph60%30.23 "Hg28 mi
2:00 PM61 °FCool.6 mph65%30.25 "Hg18 mi
1:00 PM60 °FCool.8 mph65%30.25 "Hg12 mi
12:00 PM58 °FCool.9 mph73%30.27 "Hg22 mi
11:00 AM57 °FCool.8 mph80%30.27 "Hg16 mi
10:00 AM55 °FCool.6 mph92%30.28 "Hg8 mi
9:00 AM51 °FFog.6 mph95%30.28 "Hg7 mi
8:00 AM50 °FCool.5 mph97%30.28 "Hg6 mi
7:00 AM50 °FFog.6 mph98%30.28 "Hg4 mi
6:00 AM50 °FFog.5 mph98%30.28 "Hg5 mi
5:00 AM50 °FCool.6 mph95%30.29 "Hg6 mi
4:00 AM51 °FCool.3 mph94%30.29 "Hg11 mi
3:00 AM51 °FFog.3 mph100%30.31 "Hg6 mi
2:00 AM52 °FFog.5 mph100%30.32 "Hg3 mi
1:00 AM52 °FCool.3 mph100%30.32 "Hg1 mi
12:00 AM52 °FFog.6 mph99%30.32 "Hg2 mi
11:00 PM
Sep 21
53 °FFog.6 mph98%30.32 "Hg4 mi
10:00 PM53 °FCool.7 mph96%30.32 "Hg8 mi
9:00 PM52 °FCool.5 mph90%30.32 "Hg12 mi
8:00 PM54 °FCool.5 mph81%30.31 "Hg25 mi
7:00 PM57 °FCool.5 mph76%30.30 "Hg25 mi
6:00 PM60 °FCool.3 mph61%30.30 "Hg19 mi
5:00 PM63 °FMild.5 mph57%30.30 "Hg22 mi
Weather by CustomWeather, © 2014

See weather overviewHow to use our weather pages